Overview Statistics Trail Chart Weather Telemetry Raw packets
 

This is the latest recevied weather packets stored in our database for station/object SV1JSO-13. If no packets are shown the sender has not sent any weather packets the latest 10 day(s).

<< 17 18 19 20 21 22 23 >>
Time Temp. Humidity Pressure Rain* Wind** Luminosity Snow
1788538501 30.56° C 34% 1008.1 hPa 0 mm - 42 W/m² -
1788538201 30.56° C 34% 1008.1 hPa 0 mm - 51 W/m² -
1788537901 31.11° C 33% 1008 hPa 0 mm - 59 W/m² -
1788537601 30.56° C 33% 1007.9 hPa 0 mm - 69 W/m² -
1788537301 31.11° C 34% 1007.9 hPa 0 mm - 79 W/m² -
1788537001 31.11° C 34% 1007.8 hPa 0 mm - 91 W/m² -
1788536701 31.11° C 33% 1007.8 hPa 0 mm - 101 W/m² -
1788536401 31.11° C 33% 1007.7 hPa 0 mm - 113 W/m² -
1788536101 31.11° C 34% 1007.7 hPa 0 mm - 122 W/m² -
1788535801 31.11° C 33% 1007.9 hPa 0 mm - 131 W/m² -
1788535501 31.11° C 33% 1007.8 hPa 0 mm - 141 W/m² -
1788535221 31.11° C 32% 1007.7 hPa 0 mm - 156 W/m² -
1788534901 31.11° C 33% 1007.7 hPa 0 mm - 167 W/m² -
1788534601 31.67° C 32% 1007.8 hPa 0 mm - 185 W/m² -
1788534301 31.67° C 33% 1007.8 hPa 0 mm - 194 W/m² -
1788534001 31.11° C 33% 1007.8 hPa 0 mm - 212 W/m² -
1788533700 31.11° C 33% 1007.8 hPa 0 mm - 227 W/m² -
1788533401 31.67° C 33% 1007.8 hPa 0 mm - 242 W/m² -
1788533101 31.67° C 32% 1007.8 hPa 0 mm - 257 W/m² -
1788532801 31.11° C 33% 1007.8 hPa 0 mm - 270 W/m² -
1788532501 31.11° C 33% 1007.9 hPa 0 mm - 277 W/m² -
1788532201 31.67° C 33% 1007.8 hPa 0 mm - 301 W/m² -
1788531901 31.67° C 32% 1007.7 hPa 0 mm - 314 W/m² -
1788531601 31.67° C 34% 1007.9 hPa 0 mm - 329 W/m² -
1788531301 31.67° C 33% 1007.8 hPa 0 mm - 335 W/m² -

* Rain latest hour (hover to see other rain measurements)
** Current wind speed in m/s (hover to see current wind gust speed)